Bloomington, IL

4:26 PM CDT on June 25, 2017 (GMT -0500)
Central Ill Regional

Weather History for KBMI - July, 2013

Change the Weather History Date:

Thursday, July 4, 2013

  Actual Average Record
Temperature  
Mean Temperature 70 °F -  
Max Temperature 81 °F 87 °F 99 °F (2012)
Min Temperature 59 °F 64 °F 54 °F (2014)
Cooling Degree Days 5    
Growing Degree Days 20 (Base 50)    
Moisture  
Dew Point 59 °F    
Average Humidity 68    
Maximum Humidity 90    
Minimum Humidity 50    
Precipitation  
Precipitation 0.00 in - - ()
Sea Level Pressure  
Sea Level Pressure 30.07 in    
Wind  
Wind Speed 9 mph (South)    
Max Wind Speed 16 mph    
Max Gust Speed 22 mph    
Visibility 10 miles    
Events      
Averages and records for this station are not official NWS values.
T = Trace of Precipitation, MM = Missing Value Source: NWS Daily Summary

Daily Weather History Graph

Daily Weather History Graph

Search for Another Location

Airport or City:

Trip Planner

Search our weather history database for the weather conditions in past years. The results will help you decide how hot, cold, wet, or windy it might be!

Date:

Astronomy

Jul. 04, 2013 Rise Set
Actual Time 5:30 AM CDT 8:29 PM CDT
Civil Twilight 4:57 AM CDT 9:02 PM CDT
Nautical Twilight 4:16 AM CDT 9:43 PM CDT
Astronomical Twilight 3:27 AM CDT 10:32 PM CDT
Moon 2:47 AM CDT (7/4) 5:33 PM CDT (7/4)
Length of Visible Light 16h 04m
Length of Day
14h 58m
Waning Crescent, 11% of the Moon is Illuminated
Jul 4
Waning Crescent
Jul 8
New
Jul 15
First Quarter
Jul 22
Full
Jul 29
Last Quarter

Hourly Weather History & Observations

Time (CDT) Temp. Heat Index Dew Point Humidity Pressure Visibility Wind Dir Wind Speed Gust Speed Precip Events Conditions
12:56 AM 61.9 °F - 54.9 °F 78% 30.08 in 10.0 mi South 5.8 mph - N/A   Clear
1:56 AM 61.9 °F - 55.9 °F 81% 30.07 in 10.0 mi South 6.9 mph - N/A   Clear
2:56 AM 61.0 °F - 56.8 °F 86% 30.07 in 10.0 mi South 6.9 mph - N/A   Clear
3:56 AM 61.9 °F - 57.9 °F 87% 30.06 in 10.0 mi SSW 8.1 mph - N/A   Clear
4:56 AM 59.9 °F - 56.8 °F 90% 30.08 in 10.0 mi SSW 8.1 mph - N/A   Clear
5:56 AM 59.9 °F - 56.8 °F 90% 30.09 in 2.5 mi SSE 9.2 mph - N/A   Clear
5:59 AM 60.8 °F - 57.2 °F 88% 30.11 in 7.0 mi South 8.1 mph - N/A   Clear
6:56 AM 63.9 °F - 59.0 °F 84% 30.09 in 10.0 mi South 5.8 mph - N/A   Clear
7:56 AM 68.0 °F - 59.9 °F 75% 30.11 in 10.0 mi SSW 8.1 mph - N/A   Clear
8:56 AM 72.9 °F - 61.9 °F 68% 30.10 in 10.0 mi SSW 10.4 mph - N/A   Clear
9:56 AM 75.9 °F - 59.9 °F 57% 30.10 in 10.0 mi SSW 11.5 mph - N/A   Clear
10:56 AM 77.9 °F - 61.9 °F 58% 30.10 in 10.0 mi SSW 12.7 mph - N/A   Clear
11:56 AM 79.9 °F - 63.0 °F 56% 30.09 in 10.0 mi South 11.5 mph 17.3 mph N/A   Clear
12:56 PM 81.0 °F 82.5 °F 63.9 °F 56% 30.09 in 10.0 mi South 13.8 mph 18.4 mph N/A   Scattered Clouds
1:56 PM 81.0 °F 81.7 °F 61.0 °F 50% 30.08 in 10.0 mi South 15.0 mph - N/A   Scattered Clouds
2:56 PM 81.0 °F 81.7 °F 61.0 °F 50% 30.07 in 10.0 mi South 15.0 mph 21.9 mph N/A   Clear
3:56 PM 81.0 °F 81.9 °F 61.9 °F 52% 30.05 in 10.0 mi SSE 16.1 mph 20.7 mph N/A   Partly Cloudy
4:56 PM 81.0 °F 81.7 °F 61.0 °F 50% 30.05 in 10.0 mi South 11.5 mph - N/A   Clear
5:56 PM 79.9 °F - 59.9 °F 50% 30.04 in 10.0 mi SSE 10.4 mph 19.6 mph N/A   Clear
6:56 PM 77.9 °F - 59.9 °F 54% 30.04 in 10.0 mi SSE 12.7 mph - N/A   Clear
7:56 PM 74.8 °F - 57.9 °F 55% 30.04 in 10.0 mi SSE 8.1 mph - N/A   Clear
8:56 PM 70.9 °F - 56.8 °F 61% 30.05 in 10.0 mi SE 6.9 mph - N/A   Clear
9:56 PM 68.9 °F - 57.9 °F 68% 30.06 in 10.0 mi SE 6.9 mph - N/A   Clear
10:56 PM 66.9 °F - 57.9 °F 73% 30.06 in 10.0 mi SE 5.8 mph - N/A   Clear
11:56 PM 66.9 °F - 57.9 °F 73% 30.06 in 10.0 mi SSE 6.9 mph - N/A   Clear